Back to catalog

COSMOS 1709

AliveMilitaryPO
NORAD 16368·PAYLOAD·🇷🇺 Russia

Launched Dec 19, 1985 from Plesetsk Cosmodrome

Loading…

Next Passes (next 24 hours)

TLE

FreshSource: Space-Track

Epoch: Sep 14, 2026, 08:36 UTC

1 16368U 85116A   26257.35851572  .00000043  00000-0  29937-4 0  9994
2 16368  82.9444  47.1153 0033789 234.4405 149.9324 13.74724367 43081

Track COSMOS 1709 in real time with AllMySat

Download on the App Store